STARLINK-11526, 63007

Orbit data source: Space-Track

STARLINK-11526, 63007 is a payload satellite owned by SpaceX/Seattle (US) in LEO that was launched on Sat, 15 Feb 2025 UTC via an FALCON 9 launch vehicle from the Air Force Eastern Test Range (AFETR). Payload-class satellites include a variety of spacecraft equipped with specific instruments for various scientific and technological missions. These include communications satellites like Starlink; space stations such as the ISS; scientific satellites like the Hubble; Earth observation satellites from companies like Planet Labs, Umbra, and HawkEye 360; GPS; miniature CubeSats for education and research; and military/defense satellites.

Loading next visibility...
Identifier
63007, 2025-032C
Orbit
LEO
Country
Flag of USUS
Related business
Manufacturer
SpaceX/Seattle
Mission
Operational Commercial Communications
Bus & Motor
STARLINK V2MD, Unknown motor
Mass
960 kg wet, ~910 kg dry
Launch date (UTC)
2025-02-15 (8 months ago)
Launch vehicle
FALCON 9
Launch site
Air Force Eastern Test Range (AFETR)
Object type
Payload
Rocket body
Debris
Shape & HBR
Box + 2 Pan, 18.1 m
Radar Cross Section
36.964 m², Large (>1 m²)

Expand to show TLE details & history
Last TLE update: 23 hours ago

TLE from 23 hours ago
0 STARLINK-11526
1 63007U 25032C   25301.21393479  .00347965  00000-0  25888-2 0  9994
2 63007  42.9986 273.4285 0001009 206.1817 153.9000 15.70973187 41384
Epoch: 2025-10-28T05:08Z
TLE epoch observation values (Epoch: 2025-10-28T05:08:03.965Z)
Latitude
-0.00002°
Longitude
159.60731°
Altitude
356.496 km
Speed
7.697 km/s
True Right ascension
18h 13m 42s
True Declination
0° 00' 00"
Sunlit
Object was in daylight at epoch
Visualization orbit readout
Latitude
Unknown
Longitude
Unknown
Altitude
Unknown
Speed
Unknown
Apparent Right ascension
Unknown
Apparent Declination
Unknown
Sunlit
N/A
Visualization observer readout
Local Sidereal Time
23:55:24
Azimuth
Unknown
Elevation
Unknown
Doppler factor
Unknown
Orbital elements
Apogee altitude
358.776 km
Perigee altitude
357.417 km
Semi-major axis
6,736.233 km
Eccentricity
0.0001
Inclination
42.9986°
RAAN
273.4285°
Arg. of periapsis
206.1817°
True anomaly
153.90509°
Mean anomaly
153.9°
Eccentric anomaly
153.90254°
Mean motion
3.9257 °/min
Orbital period
91.7 mins
BSTAR
0.0025888
Loading maneuver chart data...
Computing Atmospheric mass density...
Loading historical data...
Loading historical data...
Loading historical data...
Loading historical data...
Loading historical data...
Loading historical data...
Loading historical data...

Documentation

Showing up to 5 results
|